This is the latest recevied weather packets stored in our database for station/object KB3KBR-WX. If no packets are shown the sender has not sent any weather packets the latest 10 day(s).
| Time | Temp. | Humidity | Pressure | Rain* | Wind** | Luminosity | Snow |
|---|---|---|---|---|---|---|---|
| 1787880659 | 18.33° C | 89% | 1013.6 hPa | 0 mm | - | - | - |
| 1787880329 | 18.33° C | 89% | 1013.6 hPa | 0 mm | - | - | - |
| 1787879999 | 18.89° C | 88% | 1013.4 hPa | 0 mm | - | - | - |
| 1787879669 | 18.89° C | 88% | 1013.5 hPa | 0 mm | - | - | - |
| 1787879369 | 18.89° C | 88% | 1013.5 hPa | 0 mm | - | - | - |
| 1787879039 | 19.44° C | 88% | 1013.3 hPa | 0 mm | - | - | - |
| 1787878739 | 19.44° C | 87% | 1013.2 hPa | 0 mm | - | - | - |
| 1787878409 | 19.44° C | 87% | 1013.2 hPa | 0 mm | - | - | - |
| 1787878079 | 20° C | 86% | 1013.1 hPa | 0 mm | - | - | - |
| 1787877749 | 20° C | 86% | 1012.9 hPa | 0 mm | - | - | - |
| 1787876789 | 21.11° C | 84% | 1012.7 hPa | 0 mm | - | - | - |
| 1787876459 | 21.11° C | 84% | 1012.6 hPa | 0 mm | - | - | - |
| 1787876159 | 21.67° C | 84% | 1012.4 hPa | 0 mm | - | - | - |
| 1787875859 | 21.67° C | 82% | 1012.3 hPa | 0 mm | - | - | - |
| 1787875529 | 21.67° C | 82% | 1012.1 hPa | 0 mm | - | - | - |
| 1787875199 | 22.22° C | 81% | 1012.2 hPa | 0 mm | - | - | - |
| 1787874899 | 22.22° C | 81% | 1012.2 hPa | 0 mm | - | - | - |
| 1787874570 | 22.22° C | 81% | 1012.1 hPa | 0 mm | - | - | - |
| 1787874269 | 22.22° C | 81% | 1012.1 hPa | 0 mm | - | - | - |
| 1787873939 | 22.78° C | 81% | 1012 hPa | 0 mm | - | - | - |
| 1787873639 | 22.78° C | 81% | 1011.9 hPa | 0 mm | - | - | - |
| 1787873309 | 22.78° C | 81% | 1011.9 hPa | 0 mm | - | - | - |
| 1787873009 | 22.78° C | 81% | 1011.8 hPa | 0 mm | - | - | - |
| 1787872711 | 22.78° C | 81% | 1011.8 hPa | 0 mm | - | - | - |
| 1787872409 | 23.33° C | 81% | 1011.8 hPa | 0 mm | - | - | - |
* Rain latest hour (hover to see other rain measurements)
** Current wind speed in m/s (hover to see current wind gust speed)